Change the Weather History Date:

Saturday, October 13, 2012

  Actual Average Record
Temperature  
Mean Temperature 72 °F -  
Max Temperature 82 °F 76 °F 87 °F (1997)
Min Temperature 61 °F 54 °F 42 °F (2000)
Cooling Degree Days 6    
Growing Degree Days 22 (Base 50)    
Moisture  
Dew Point 63 °F    
Average Humidity 77    
Maximum Humidity 94    
Minimum Humidity 55    
Precipitation  
Precipitation 0.00 in - - ()
Sea Level Pressure  
Sea Level Pressure 30.21 in    
Wind  
Wind Speed 6 mph (ENE)    
Max Wind Speed 10 mph    
Max Gust Speed -    
Visibility 10 miles    
Events      
Averages and records for this station are not official NWS values.
T = Trace of Precipitation, MM = Missing Value Source: NWS Daily Summary

Daily Weather History Graph

Daily Weather History Graph

Search for Another Location

Airport or City:

Trip Planner

Search our weather history database for the weather conditions in past years. The results will help you decide how hot, cold, wet, or windy it might be!

Date:

Astronomy

Oct. 13, 2012 Rise Set
Actual Time 6:44 AM CDT 6:12 PM CDT
Civil Twilight 6:20 AM CDT 6:37 PM CDT
Nautical Twilight 5:52 AM CDT 7:05 PM CDT
Astronomical Twilight 5:24 AM CDT 7:33 PM CDT
Moon 4:39 AM CDT (10/13) 4:52 PM CDT (10/13)
Length of Visible Light 12h 16m
Length of Day
11h 28m
Waning Crescent, 5% of the Moon is Illuminated
Oct 13
Waning Crescent
Oct 15
New
Oct 21
First Quarter
Oct 29
Full
Nov 6
Last Quarter

Hourly Weather History & Observations

Time (CDT) Temp. Heat Index Dew Point Humidity Pressure Visibility Wind Dir Wind Speed Gust Speed Precip Events Conditions
12:55 AM 65.7 °F - 63.3 °F 92% 30.21 in 10.0 mi ENE 6.9 mph - N/A   Clear
1:55 AM 65.5 °F - 62.6 °F 90% 30.20 in 10.0 mi NE 6.9 mph - N/A   Clear
2:55 AM 63.7 °F - 61.7 °F 93% 30.19 in 10.0 mi ENE 5.8 mph - N/A   Clear
3:55 AM 62.6 °F - 60.8 °F 94% 30.19 in 10.0 mi NE 4.6 mph - N/A   Clear
4:55 AM 63.5 °F - 60.8 °F 91% 30.21 in 10.0 mi NNE 5.8 mph - N/A   Clear
5:55 AM 62.8 °F - 60.4 °F 92% 30.22 in 10.0 mi NE 5.8 mph - N/A   Clear
6:55 AM 61.9 °F - 60.3 °F 94% 30.23 in 10.0 mi NE 5.8 mph - N/A   Clear
7:55 AM 64.2 °F - 61.3 °F 90% 30.25 in 10.0 mi NE 5.8 mph - N/A   Clear
8:55 AM 68.5 °F - 62.8 °F 82% 30.26 in 10.0 mi ENE 5.8 mph - N/A   Clear
9:55 AM 73.9 °F - 63.1 °F 69% 30.27 in 10.0 mi East 6.9 mph - N/A   Clear
10:55 AM 77.2 °F - 63.9 °F 63% 30.27 in 10.0 mi East 10.4 mph - N/A   Clear
11:55 AM 79.5 °F - 63.9 °F 59% 30.25 in 10.0 mi East 8.1 mph - N/A   Clear
12:55 PM 80.8 °F 82.4 °F 64.2 °F 57% 30.22 in 10.0 mi East 6.9 mph - N/A   Clear
1:55 PM 82.0 °F 83.6 °F 64.6 °F 55% 30.19 in 10.0 mi East 9.2 mph - N/A   Partly Cloudy
2:55 PM 81.0 °F 82.7 °F 64.8 °F 58% 30.18 in 10.0 mi ENE 9.2 mph - N/A   Mostly Cloudy
3:55 PM 81.9 °F 83.4 °F 64.2 °F 55% 30.17 in 10.0 mi East 8.1 mph - N/A   Scattered Clouds
4:55 PM 80.2 °F 81.9 °F 64.0 °F 58% 30.17 in 10.0 mi East 8.1 mph - N/A   Clear
5:55 PM 77.4 °F - 64.6 °F 65% 30.18 in 10.0 mi East 4.6 mph - N/A   Clear
6:55 PM 73.0 °F - 64.8 °F 75% 30.18 in 10.0 mi East 5.8 mph - N/A   Partly Cloudy
7:55 PM 70.9 °F - 64.4 °F 80% 30.19 in 10.0 mi ENE 4.6 mph - N/A   Clear
8:55 PM 68.4 °F - 63.3 °F 84% 30.19 in 10.0 mi ENE 4.6 mph - N/A   Clear
9:55 PM 67.8 °F - 62.8 °F 84% 30.19 in 10.0 mi ENE 4.6 mph - N/A   Clear
10:55 PM 66.7 °F - 61.9 °F 84% 30.19 in 10.0 mi ENE 4.6 mph - N/A   Clear
11:55 PM 65.1 °F - 61.2 °F 87% 30.18 in 10.0 mi ENE 5.8 mph - N/A   Clear